Location: Bothwell
(42.3833°S, 147.0000°E)
Time: 09:24:33
(UTC+10:00)

UNISAT 6 - Pass Details

Date: 08 August 2024
Orbit: 589 x 662 km, 97.7° (Epoch: 14 September)

Event Time Altitude Azimuth Distance (km) Brightness Sun altitude
Rises 06:16:33 0° 187° (S) 3,038 ? -11.0°
Reaches altitude 10° 06:19:48 10° 211° (SSW) 2,121 ? -10.4°
Maximum altitude 06:22:08 14° 242° (WSW) 1,866 ? -10.0°
Enters shadow 06:23:20 13° 258° (WSW) 1,933 ? -9.8°
